Bloomington, IL

10:37 PM CDT on September 28, 2016 (GMT -0500)
Central Ill Regional

Weather History for KBMI - March, 2014

Change the Weather History Date:

Tuesday, March 18, 2014

  Actual Average Record
Temperature  
Mean Temperature 38 °F -  
Max Temperature 52 °F 56 °F 81 °F (2012)
Min Temperature 27 °F 39 °F 24 °F (2001)
Degree Days  
Heating Degree Days 26    
Moisture  
Dew Point 32 °F    
Average Humidity 79    
Maximum Humidity 89    
Minimum Humidity 61    
Precipitation  
Precipitation 0.00 in - - ()
Sea Level Pressure  
Sea Level Pressure 29.81 in    
Wind  
Wind Speed 14 mph (SSE)    
Max Wind Speed 24 mph    
Max Gust Speed 32 mph    
Visibility 9 miles    
Events      
Averages and records for this station are not official NWS values.
T = Trace of Precipitation, MM = Missing Value Source: NWS Daily Summary

Daily Weather History Graph

Daily Weather History Graph

Search for Another Location

Airport or City:

Trip Planner

Search our weather history database for the weather conditions in past years. The results will help you decide how hot, cold, wet, or windy it might be!

Date:

Astronomy

Mar. 18, 2014 Rise Set
Actual Time 7:02 AM CDT 7:05 PM CDT
Civil Twilight 6:35 AM CDT 7:32 PM CDT
Nautical Twilight 6:03 AM CDT 8:04 PM CDT
Astronomical Twilight 5:31 AM CDT 8:37 PM CDT
Moon 9:23 PM CDT (3/18) 7:51 AM CDT (3/18)
Length of Visible Light 12h 57m
Length of Day
12h 03m
Waning Gibbous, 96% of the Moon is Illuminated
Mar 18
Waning Gibbous
Mar 23
Last Quarter
Mar 30
New
Apr 7
First Quarter
Apr 15
Full

Hourly Weather History & Observations

Time (CDT) Temp. Windchill Dew Point Humidity Pressure Visibility Wind Dir Wind Speed Gust Speed Precip Events Conditions
12:56 AM 27.1 °F 18.2 °F 24.1 °F 88% 29.89 in 10.0 mi South 9.2 mph - N/A   Clear
1:56 AM 29.1 °F 18.9 °F 25.2 °F 85% 29.87 in 10.0 mi SSE 12.7 mph - N/A   Clear
2:56 AM 29.1 °F 18.9 °F 25.2 °F 85% 29.88 in 9.0 mi SSE 12.7 mph - N/A   Clear
3:56 AM 28.0 °F 18.6 °F 25.2 °F 89% 29.86 in 9.0 mi SSE 10.4 mph - N/A   Clear
4:56 AM 29.1 °F 18.9 °F 26.1 °F 88% 29.86 in 8.0 mi SSE 12.7 mph - N/A   Clear
5:56 AM 28.0 °F 18.1 °F 25.2 °F 89% 29.86 in 7.0 mi SSE 11.5 mph - N/A   Clear
6:56 AM 29.1 °F 19.4 °F 26.1 °F 88% 29.87 in 7.0 mi SSE 11.5 mph - N/A   Clear
7:56 AM 30.0 °F 19.1 °F 27.1 °F 89% 29.87 in 7.0 mi SSE 15.0 mph - N/A   Clear
8:56 AM 32.9 °F 22.8 °F 28.0 °F 82% 29.88 in 8.0 mi SSE 15.0 mph - N/A   Clear
9:56 AM 34.9 °F 25.3 °F 29.1 °F 79% 29.88 in 9.0 mi SSE 15.0 mph 20.7 mph N/A   Clear
10:56 AM 38.8 °F 30.8 °F 32.0 °F 76% 29.89 in 9.0 mi SSE 13.8 mph - N/A   Clear
11:56 AM 43.9 °F 35.7 °F 34.0 °F 68% 29.86 in 10.0 mi SSE 19.6 mph 24.2 mph N/A   Clear
12:56 PM 45.9 °F 37.8 °F 36.0 °F 68% 29.86 in 10.0 mi SSE 21.9 mph 26.5 mph N/A   Clear
1:56 PM 50.0 °F - 36.9 °F 61% 29.83 in 10.0 mi SSE 24.2 mph 29.9 mph N/A   Partly Cloudy
2:56 PM 50.0 °F - 36.9 °F 61% 29.78 in 10.0 mi SSE 20.7 mph 28.8 mph N/A   Clear
3:56 PM 48.9 °F - 37.9 °F 66% 29.74 in 10.0 mi SSE 21.9 mph 31.1 mph N/A   Clear
4:56 PM 48.9 °F - 36.9 °F 63% 29.70 in 10.0 mi SE 23.0 mph 32.2 mph N/A   Clear
5:56 PM 45.9 °F 37.8 °F 36.9 °F 71% 29.68 in 10.0 mi SSE 21.9 mph 29.9 mph N/A   Clear
6:56 PM 43.9 °F 35.4 °F 36.0 °F 74% 29.69 in 10.0 mi SSE 20.7 mph - N/A   Clear
7:56 PM 41.9 °F 33.4 °F 36.9 °F 82% 29.74 in 10.0 mi South 18.4 mph - N/A   Scattered Clouds
8:56 PM 41.0 °F 34.3 °F 36.0 °F 82% 29.74 in 9.0 mi SSE 11.5 mph - N/A   Mostly Cloudy
9:56 PM 41.0 °F 33.1 °F 36.9 °F 85% 29.73 in 9.0 mi SSE 15.0 mph - N/A   Mostly Cloudy
10:56 PM 39.9 °F 30.8 °F 36.9 °F 89% 29.72 in 7.0 mi SSE 18.4 mph - N/A   Partly Cloudy
11:56 PM 41.0 °F 32.5 °F 37.9 °F 89% 29.70 in 7.0 mi SSE 17.3 mph - N/A   Mostly Cloudy